| time (UTC) | temp F | wind direction | speed MPH | gust MPH | rain 1hr in | rain 24hr in | rain mn in | humidity % | barometer mb |
| 20260906134322 | 73 | 10 | 4.0 | 11.0 | 0.00 | 0.01 | 0.01 | 78 | 1014.8 |
| 20260906133830 | 72 | 355 | 3.0 | 11.0 | 0.00 | 0.01 | 0.01 | 79 | 1014.9 |
| 20260906133334 | 72 | 9 | 3.0 | 7.0 | 0.00 | 0.01 | 0.01 | 79 | 1014.8 |
| 20260906132839 | 72 | 355 | 5.0 | 7.0 | 0.00 | 0.01 | 0.01 | 80 | 1014.8 |
| 20260906132343 | 71 | 11 | 3.0 | 6.0 | 0.00 | 0.01 | 0.01 | 83 | 1014.9 |
| 20260906131831 | 71 | 340 | 4.0 | 6.0 | 0.00 | 0.01 | 0.01 | 84 | 1014.9 |
| 20260906131336 | 70 | 360 | 4.0 | 5.0 | 0.00 | 0.01 | 0.01 | 85 | 1014.9 |
| 20260906130840 | 70 | 341 | 3.0 | 6.0 | 0.00 | 0.01 | 0.01 | 86 | 1014.9 |
| 20260906130325 | 69 | 338 | 1.0 | 6.0 | 0.00 | 0.01 | 0.01 | 87 | 1015.0 |
| 20260906125828 | 68 | 355 | 3.0 | 7.0 | 0.00 | 0.01 | 0.01 | 88 | 1014.9 |
| 20260906125355 | 68 | 346 | 3.0 | 7.0 | 0.00 | 0.01 | 0.01 | 89 | 1014.9 |
| 20260906124858 | 68 | 347 | 3.0 | 5.0 | 0.00 | 0.01 | 0.01 | 90 | 1014.8 |
| 20260906124342 | 67 | 345 | 3.0 | 5.0 | 0.00 | 0.01 | 0.01 | 90 | 1014.8 |
| 20260906123826 | 67 | 5 | 2.0 | 4.0 | 0.00 | 0.01 | 0.01 | 91 | 1014.7 |
| 20260906123333 | 66 | 355 | 2.0 | 4.0 | 0.00 | 0.01 | 0.01 | 92 | 1014.7 |
| 20260906122839 | 66 | 355 | 2.0 | 4.0 | 0.00 | 0.01 | 0.01 | 92 | 1014.6 |
| 20260906122346 | 65 | 355 | 2.0 | 4.0 | 0.00 | 0.01 | 0.01 | 92 | 1014.5 |
| 20260906121850 | 65 | 355 | 2.0 | 4.0 | 0.00 | 0.01 | 0.01 | 92 | 1014.4 |
| 20260906121354 | 64 | 341 | 3.0 | 4.0 | 0.00 | 0.01 | 0.01 | 93 | 1014.4 |
| 20260906120837 | 64 | 355 | 2.0 | 4.0 | 0.00 | 0.01 | 0.01 | 93 | 1014.3 |
| 20260906120326 | 64 | 355 | 2.0 | 4.0 | 0.00 | 0.01 | 0.01 | 93 | 1014.3 |
| 20260906115829 | 64 | 355 | 2.0 | 3.0 | 0.01 | 0.01 | 0.01 | 93 | 1014.2 |
| 20260906115332 | 63 | 355 | 1.0 | 3.0 | 0.01 | 0.01 | 0.01 | 93 | 1014.1 |
| 20260906114839 | 63 | 355 | 0.0 | 4.0 | 0.01 | 0.01 | 0.01 | 93 | 1014.0 |
| 20260906114326 | 63 | 355 | 2.0 | 4.0 | 0.01 | 0.01 | 0.01 | 93 | 1013.9 |
| 20260906113834 | 63 | 340 | 3.0 | 4.0 | 0.01 | 0.01 | 0.01 | 93 | 1013.9 |
| 20260906113338 | 63 | 355 | 1.0 | 3.0 | 0.01 | 0.01 | 0.01 | 93 | 1013.8 |
| 20260906112843 | 62 | 355 | 2.0 | 3.0 | 0.01 | 0.01 | 0.01 | 93 | 1013.9 |
| 20260906112326 | 62 | 9 | 1.0 | 3.0 | 0.01 | 0.01 | 0.01 | 93 | 1013.8 |
| 20260906111851 | 62 | 13 | 1.0 | 2.0 | 0.01 | 0.01 | 0.01 | 93 | 1014.0 |
| 20260906111334 | 62 | 13 | 0.0 | 2.0 | 0.01 | 0.01 | 0.01 | 93 | 1014.0 |
| 20260906110843 | 62 | 13 | 0.0 | 3.0 | 0.01 | 0.01 | 0.01 | 93 | 1013.9 |
| 20260906110347 | 62 | 13 | 1.0 | 3.0 | 0.01 | 0.01 | 0.01 | 93 | 1013.8 |
| 20260906105831 | 62 | 355 | 1.0 | 3.0 | 0.00 | 0.00 | 0.00 | 94 | 1013.7 |
| 20260906105334 | 61 | 355 | 1.0 | 3.0 | 0.00 | 0.00 | 0.00 | 93 | 1013.7 |
| 20260906104859 | 61 | 355 | 0.0 | 0.0 | 0.00 | 0.00 | 0.00 | 93 | 1013.9 |
| 20260906104343 | 61 | 355 | 0.0 | 1.0 | 0.00 | 0.00 | 0.00 | 93 | 1013.7 |
| 20260906103827 | 62 | 355 | 0.0 | 2.0 | 0.00 | 0.00 | 0.00 | 93 | 1013.5 |
| 20260906103332 | 62 | 355 | 1.0 | 2.0 | 0.00 | 0.00 | 0.00 | 93 | 1013.5 |
| 20260906102836 | 62 | 355 | 0.0 | 2.0 | 0.00 | 0.00 | 0.00 | 93 | 1013.5 |
| 20260906102340 | 62 | 355 | 2.0 | 2.0 | 0.00 | 0.00 | 0.00 | 93 | 1013.4 |
| 20260906101824 | 62 | 355 | 1.0 | 2.0 | 0.00 | 0.00 | 0.00 | 93 | 1013.3 |
| 20260906101329 | 62 | 355 | 1.0 | 3.0 | 0.00 | 0.00 | 0.00 | 93 | 1013.3 |
| 20260906100838 | 62 | 355 | 1.0 | 3.0 | 0.00 | 0.00 | 0.00 | 93 | 1013.3 |
| 20260906100402 | 62 | 355 | 0.0 | 0.0 | 0.00 | 0.00 | 0.00 | 93 | 1013.2 |
| 20260906095826 | 62 | 355 | 0.0 | 2.0 | 0.00 | 0.00 | 0.00 | 93 | 1013.2 |
| 20260906095329 | 62 | 355 | 1.0 | 2.0 | 0.00 | 0.00 | 0.00 | 93 | 1013.1 |
| 20260906094834 | 63 | 355 | 0.0 | 1.0 | 0.00 | 0.00 | 0.00 | 93 | 1013.0 |
| 20260906094339 | 63 | 355 | 0.0 | 1.0 | 0.00 | 0.00 | 0.00 | 93 | 1013.0 |
| 20260906093822 | 63 | 355 | 0.0 | 1.0 | 0.00 | 0.00 | 0.00 | 93 | 1012.9 |
| 20260906093330 | 63 | 355 | 1.0 | 2.0 | 0.00 | 0.00 | 0.00 | 93 | 1012.8 |
| 20260906092834 | 63 | 355 | 0.0 | 3.0 | 0.00 | 0.00 | 0.00 | 93 | 1012.8 |
| 20260906092337 | 63 | 355 | 0.0 | 3.0 | 0.00 | 0.00 | 0.00 | 93 | 1012.7 |
| 20260906091824 | 63 | 355 | 2.0 | 2.0 | 0.00 | 0.00 | 0.00 | 93 | 1012.6 |
| 20260906091333 | 63 | 355 | 0.0 | 0.0 | 0.00 | 0.00 | 0.00 | 93 | 1012.5 |
| 20260906090839 | 63 | 355 | 0.0 | 0.0 | 0.00 | 0.00 | 0.00 | 93 | 1012.6 |
| 20260906090327 | 63 | 355 | 0.0 | 0.0 | 0.00 | 0.00 | 0.00 | 93 | 1012.5 |
| 20260906085832 | 63 | 355 | 0.0 | 0.0 | 0.00 | 0.00 | 0.00 | 93 | 1012.5 |
| 20260906085335 | 63 | 355 | 0.0 | 0.0 | 0.00 | 0.00 | 0.00 | 93 | 1012.6 |
| 20260906084840 | 63 | 355 | 0.0 | 0.0 | 0.00 | 0.00 | 0.00 | 93 | 1012.5 |
| 20260906084325 | 63 | 355 | 0.0 | 1.0 | 0.00 | 0.00 | 0.00 | 93 | 1012.5 |
| 20260906083829 | 63 | 355 | 0.0 | 1.0 | 0.00 | 0.00 | 0.00 | 93 | 1012.4 |
| 20260906083353 | 63 | 355 | 0.0 | 1.0 | 0.00 | 0.00 | 0.00 | 92 | 1012.3 |
| 20260906082840 | 63 | 355 | 0.0 | 1.0 | 0.00 | 0.00 | 0.00 | 92 | 1012.3 |
| 20260906082344 | 63 | 355 | 0.0 | 0.0 | 0.00 | 0.00 | 0.00 | 92 | 1012.3 |
| 20260906081848 | 63 | 355 | 0.0 | 0.0 | 0.00 | 0.00 | 0.00 | 92 | 1012.3 |
| 20260906081336 | 63 | 355 | 0.0 | 0.0 | 0.00 | 0.00 | 0.00 | 92 | 1012.3 |
| 20260906080840 | 64 | 355 | 0.0 | 0.0 | 0.00 | 0.00 | 0.00 | 92 | 1012.4 |
| 20260906080324 | 64 | 355 | 0.0 | 0.0 | 0.00 | 0.00 | 0.00 | 92 | 1012.4 |
| 20260906075832 | 64 | 355 | 0.0 | 3.0 | 0.00 | 0.00 | 0.00 | 92 | 1012.5 |
| 20260906075335 | 64 | 355 | 1.0 | 4.0 | 0.00 | 0.00 | 0.00 | 92 | 1012.4 |
| 20260906074840 | 65 | 355 | 2.0 | 4.0 | 0.00 | 0.00 | 0.00 | 91 | 1012.4 |
| 20260906074324 | 65 | 355 | 2.0 | 5.0 | 0.00 | 0.00 | 0.00 | 91 | 1012.4 |
| 20260906073829 | 65 | 5 | 3.0 | 5.0 | 0.00 | 0.00 | 0.00 | 91 | 1012.3 |
| 20260906073333 | 65 | 360 | 2.0 | 4.0 | 0.00 | 0.00 | 0.00 | 91 | 1012.1 |
| 20260906072838 | 65 | 30 | 2.0 | 3.0 | 0.00 | 0.00 | 0.00 | 91 | 1012.2 |
| 20260906072325 | 65 | 30 | 1.0 | 3.0 | 0.00 | 0.00 | 0.00 | 91 | 1012.2 |
| 20260906071830 | 65 | 30 | 1.0 | 3.0 | 0.00 | 0.00 | 0.00 | 91 | 1012.2 |
| 20260906071335 | 65 | 30 | 1.0 | 3.0 | 0.00 | 0.00 | 0.00 | 91 | 1012.1 |
| 20260906070839 | 65 | 30 | 1.0 | 3.0 | 0.00 | 0.00 | 0.00 | 91 | 1012.1 |
| 20260906070404 | 66 | 30 | 2.0 | 3.0 | 0.00 | 0.00 | 0.00 | 91 | 1012.1 |
| 20260906065827 | 66 | 30 | 2.0 | 3.0 | 0.00 | 0.00 | 0.00 | 91 | 1012.2 |
| 20260906065331 | 66 | 30 | 2.0 | 3.0 | 0.00 | 0.00 | 0.00 | 91 | 1012.3 |
| 20260906064835 | 66 | 30 | 1.0 | 3.0 | 0.00 | 0.00 | 0.00 | 91 | 1012.3 |
| 20260906064400 | 66 | 30 | 1.0 | 3.0 | 0.00 | 0.00 | 0.00 | 90 | 1012.2 |
| 20260906063904 | 67 | 30 | 1.0 | 4.0 | 0.00 | 0.00 | 0.00 | 90 | 1012.2 |
| 20260906063327 | 67 | 12 | 2.0 | 5.0 | 0.00 | 0.00 | 0.00 | 90 | 1012.1 |
| 20260906062852 | 67 | 9 | 2.0 | 5.0 | 0.00 | 0.00 | 0.00 | 90 | 1011.9 |
| 20260906062334 | 67 | 355 | 2.0 | 4.0 | 0.00 | 0.00 | 0.00 | 90 | 1012.0 |
| 20260906061839 | 67 | 9 | 2.0 | 4.0 | 0.00 | 0.00 | 0.00 | 91 | 1012.0 |
| 20260906061327 | 67 | 355 | 2.0 | 4.0 | 0.00 | 0.00 | 0.00 | 90 | 1012.0 |
| 20260906060852 | 67 | 11 | 2.0 | 4.0 | 0.00 | 0.00 | 0.00 | 89 | 1012.1 |
| 20260906060336 | 68 | 26 | 2.0 | 4.0 | 0.00 | 0.00 | 0.00 | 89 | 1012.2 |
| 20260906055840 | 68 | 5 | 2.0 | 3.0 | 0.00 | 0.00 | 0.00 | 89 | 1012.3 |
| 20260906055344 | 68 | 5 | 2.0 | 3.0 | 0.00 | 0.00 | 0.00 | 89 | 1012.3 |
| 20260906054828 | 68 | 5 | 2.0 | 4.0 | 0.00 | 0.00 | 0.00 | 89 | 1012.2 |
| 20260906054336 | 68 | 21 | 2.0 | 4.0 | 0.00 | 0.00 | 0.00 | 89 | 1012.2 |
| 20260906053900 | 68 | 25 | 2.0 | 4.0 | 0.00 | 0.00 | 0.00 | 89 | 1012.3 |
| 20260906053344 | 68 | 19 | 1.0 | 4.0 | 0.00 | 0.00 | 0.00 | 89 | 1012.2 |
| 20260906052829 | 68 | 5 | 2.0 | 4.0 | 0.00 | 0.00 | 0.00 | 89 | 1012.2 |
| 20260906052332 | 68 | 5 | 2.0 | 4.0 | 0.00 | 0.00 | 0.00 | 88 | 1012.2 |
| 20260906051857 | 69 | 10 | 1.0 | 4.0 | 0.00 | 0.00 | 0.00 | 88 | 1012.2 |
| 20260906051400 | 69 | 22 | 2.0 | 4.0 | 0.00 | 0.00 | 0.00 | 89 | 1012.1 |
| 20260906050844 | 69 | 5 | 2.0 | 4.0 | 0.00 | 0.00 | 0.00 | 89 | 1012.2 |
| 20260906050348 | 68 | 5 | 2.0 | 4.0 | 0.00 | 0.00 | 0.00 | 89 | 1012.2 |
| 20260906045836 | 68 | 5 | 2.0 | 4.0 | 0.00 | 0.00 | 0.00 | 89 | 1012.3 |
| 20260906045340 | 68 | 9 | 3.0 | 4.0 | 0.00 | 0.00 | 0.00 | 89 | 1012.3 |
| 20260906044824 | 68 | 21 | 0.0 | 3.0 | 0.00 | 0.00 | 0.00 | 89 | 1012.2 |
| 20260906044348 | 68 | 80 | 1.0 | 2.0 | 0.00 | 0.00 | 0.00 | 89 | 1012.3 |
| 20260906043854 | 68 | 80 | 0.0 | 1.0 | 0.00 | 0.00 | 0.00 | 89 | 1012.5 |
| 20260906043341 | 68 | 80 | 0.0 | 1.0 | 0.00 | 0.00 | 0.00 | 89 | 1012.4 |
| 20260906042826 | 68 | 80 | 0.0 | 2.0 | 0.00 | 0.00 | 0.00 | 88 | 1012.5 |
| 20260906042329 | 68 | 80 | 1.0 | 2.0 | 0.00 | 0.00 | 0.00 | 88 | 1012.5 |
| 20260906041834 | 68 | 80 | 2.0 | 2.0 | 0.00 | 0.00 | 0.00 | 88 | 1012.4 |
| 20260906041338 | 68 | 80 | 1.0 | 2.0 | 0.00 | 0.00 | 0.00 | 88 | 1012.4 |
| 20260906040843 | 68 | 80 | 0.0 | 1.0 | 0.00 | 0.00 | 0.00 | 88 | 1012.4 |
| 20260906040326 | 68 | 80 | 0.0 | 1.0 | 0.00 | 0.00 | 0.00 | 88 | 1012.4 |
| 20260906035838 | 68 | 80 | 0.0 | 1.0 | 0.00 | 0.00 | 0.00 | 88 | 1012.4 |
| 20260906035341 | 68 | 80 | 0.0 | 1.0 | 0.00 | 0.00 | 0.00 | 88 | 1012.4 |
| 20260906034826 | 68 | 80 | 0.0 | 1.0 | 0.00 | 0.00 | 0.00 | 87 | 1012.6 |
| 20260906034331 | 68 | 80 | 0.0 | 0.0 | 0.00 | 0.00 | 0.00 | 87 | 1012.5 |
| 20260906033834 | 68 | 80 | 0.0 | 1.0 | 0.00 | 0.00 | 0.00 | 87 | 1012.5 |
| 20260906033342 | 68 | 80 | 0.0 | 1.0 | 0.00 | 0.00 | 0.00 | 86 | 1012.4 |
| 20260906032826 | 69 | 80 | 0.0 | 0.0 | 0.00 | 0.00 | 0.00 | 85 | 1012.4 |
| 20260906032350 | 69 | 80 | 0.0 | 0.0 | 0.00 | 0.00 | 0.00 | 85 | 1012.4 |
| 20260906031833 | 69 | 80 | 0.0 | 1.0 | 0.00 | 0.00 | 0.00 | 84 | 1012.4 |
| 20260906031338 | 70 | 80 | 0.0 | 1.0 | 0.00 | 0.00 | 0.00 | 84 | 1012.3 |
| 20260906030843 | 70 | 80 | 0.0 | 0.0 | 0.00 | 0.00 | 0.00 | 83 | 1012.3 |
| 20260906030331 | 70 | 80 | 0.0 | 0.0 | 0.00 | 0.00 | 0.00 | 82 | 1012.2 |
| 20260906025836 | 71 | 80 | 0.0 | 0.0 | 0.00 | 0.00 | 0.00 | 81 | 1012.2 |
| 20260906025339 | 71 | 80 | 0.0 | 0.0 | 0.00 | 0.00 | 0.00 | 81 | 1012.3 |
| 20260906024823 | 71 | 80 | 0.0 | 0.0 | 0.00 | 0.00 | 0.00 | 81 | 1012.1 |
| 20260906024331 | 71 | 80 | 0.0 | 0.0 | 0.00 | 0.00 | 0.00 | 81 | 1012.1 |
| 20260906023836 | 72 | 80 | 0.0 | 0.0 | 0.00 | 0.00 | 0.00 | 80 | 1012.1 |
| 20260906023401 | 72 | 80 | 0.0 | 0.0 | 0.00 | 0.00 | 0.00 | 80 | 1012.1 |
| 20260906022844 | 72 | 80 | 0.0 | 0.0 | 0.00 | 0.00 | 0.00 | 79 | 1012.1 |
| 20260906022328 | 73 | 80 | 0.0 | 0.0 | 0.00 | 0.00 | 0.00 | 79 | 1011.9 |
| 20260906021852 | 73 | 80 | 0.0 | 0.0 | 0.00 | 0.00 | 0.00 | 78 | 1011.8 |
| 20260906021336 | 73 | 80 | 0.0 | 1.0 | 0.00 | 0.00 | 0.00 | 78 | 1011.9 |
| 20260906020840 | 74 | 80 | 0.0 | 1.0 | 0.00 | 0.00 | 0.00 | 78 | 1011.9 |
| 20260906020329 | 74 | 80 | 0.0 | 1.0 | 0.00 | 0.00 | 0.00 | 77 | 1011.9 |
| 20260906015833 | 74 | 80 | 0.0 | 1.0 | 0.00 | 0.00 | 0.00 | 77 | 1012.0 |
| 20260906015340 | 74 | 80 | 0.0 | 1.0 | 0.00 | 0.00 | 0.00 | 77 | 1011.9 |
| 20260906014825 | 74 | 80 | 0.0 | 1.0 | 0.00 | 0.00 | 0.00 | 77 | 1011.8 |
| 20260906014332 | 74 | 80 | 0.0 | 3.0 | 0.00 | 0.00 | 0.00 | 77 | 1011.8 |
| 20260906013837 | 74 | 80 | 0.0 | 3.0 | 0.00 | 0.00 | 0.00 | 77 | 1011.7 |
| 20260906013401 | 74 | 80 | 0.0 | 2.0 | 0.00 | 0.00 | 0.00 | 77 | 1011.6 |
| 20260906012905 | 74 | 80 | 0.0 | 2.0 | 0.00 | 0.00 | 0.00 | 77 | 1011.6 |
| 20260906012326 | 74 | 80 | 0.0 | 2.0 | 0.00 | 0.00 | 0.00 | 76 | 1011.4 |
| 20260906011833 | 74 | 80 | 0.0 | 3.0 | 0.00 | 0.00 | 0.00 | 76 | 1011.5 |
| 20260906011401 | 75 | 80 | 0.0 | 3.0 | 0.00 | 0.00 | 0.00 | 76 | 1011.3 |
| 20260906010904 | 75 | 66 | 0.0 | 2.0 | 0.00 | 0.00 | 0.00 | 76 | 1011.3 |
| 20260906010327 | 74 | 66 | 0.0 | 2.0 | 0.00 | 0.00 | 0.00 | 76 | 1011.2 |
| 20260906005836 | 74 | 65 | 0.0 | 2.0 | 0.00 | 0.00 | 0.00 | 76 | 1011.3 |
| 20260906005359 | 75 | 66 | 0.0 | 1.0 | 0.00 | 0.00 | 0.00 | 75 | 1011.1 |
| 20260906004826 | 75 | 65 | 0.0 | 1.0 | 0.00 | 0.00 | 0.00 | 75 | 1011.1 |
| 20260906004331 | 75 | 65 | 0.0 | 1.0 | 0.00 | 0.00 | 0.00 | 74 | 1011.1 |
| 20260906003856 | 75 | 65 | 0.0 | 1.0 | 0.00 | 0.00 | 0.00 | 74 | 1011.1 |
| 20260906003339 | 75 | 66 | 0.0 | 1.0 | 0.00 | 0.00 | 0.00 | 74 | 1011.2 |
| 20260906002844 | 75 | 66 | 0.0 | 1.0 | 0.00 | 0.00 | 0.00 | 73 | 1011.0 |
| 20260906002327 | 76 | 65 | 0.0 | 0.0 | 0.00 | 0.00 | 0.00 | 73 | 1010.8 |
| 20260906001831 | 76 | 65 | 0.0 | 2.0 | 0.00 | 0.00 | 0.00 | 72 | 1010.8 |
| 20260906001358 | 76 | 65 | 0.0 | 2.0 | 0.00 | 0.00 | 0.00 | 72 | 1010.9 |
| 20260906000825 | 76 | 65 | 0.0 | 1.0 | 0.00 | 0.00 | 0.00 | 71 | 1010.8 |
| 20260906000329 | 77 | 65 | 0.0 | 2.0 | 0.00 | 0.00 | 0.00 | 70 | 1010.7 |
| 20260905235834 | 77 | 65 | 1.0 | 2.0 | 0.00 | 0.00 | 0.00 | 70 | 1010.7 |
| 20260905235338 | 77 | 65 | 0.0 | 1.0 | 0.00 | 0.00 | 0.00 | 69 | 1010.7 |
| 20260905234825 | 78 | 66 | 0.0 | 1.0 | 0.00 | 0.00 | 0.00 | 68 | 1010.6 |
| 20260905234333 | 78 | 65 | 0.0 | 2.0 | 0.00 | 0.00 | 0.00 | 68 | 1010.5 |
| 20260905233857 | 79 | 65 | 0.0 | 2.0 | 0.00 | 0.00 | 0.00 | 67 | 1010.5 |
| 20260905233340 | 79 | 65 | 0.0 | 3.0 | 0.00 | 0.00 | 0.00 | 66 | 1010.5 |
| 20260905232828 | 79 | 63 | 0.0 | 5.0 | 0.00 | 0.00 | 0.00 | 66 | 1010.5 |
| 20260905232331 | 79 | 69 | 2.0 | 5.0 | 0.00 | 0.00 | 0.00 | 65 | 1010.5 |
| 20260905231836 | 80 | 51 | 0.0 | 2.0 | 0.00 | 0.00 | 0.00 | 65 | 1010.5 |
| 20260905231359 | 80 | 60 | 1.0 | 4.0 | 0.00 | 0.00 | 0.00 | 65 | 1010.4 |
| 20260905230826 | 80 | 60 | 1.0 | 4.0 | 0.00 | 0.00 | 0.00 | 65 | 1010.4 |
| 20260905230331 | 80 | 32 | 1.0 | 5.0 | 0.00 | 0.00 | 0.00 | 64 | 1010.4 |
| 20260905225835 | 81 | 348 | 2.0 | 6.0 | 0.00 | 0.00 | 0.00 | 63 | 1010.3 |
| 20260905225339 | 81 | 39 | 3.0 | 6.0 | 0.00 | 0.00 | 0.00 | 63 | 1010.3 |
| 20260905224826 | 81 | 108 | 1.0 | 6.0 | 0.00 | 0.00 | 0.00 | 63 | 1010.3 |
| 20260905224332 | 81 | 84 | 3.0 | 8.0 | 0.00 | 0.00 | 0.00 | 61 | 1010.0 |
| 20260905223840 | 82 | 72 | 3.0 | 8.0 | 0.00 | 0.00 | 0.00 | 62 | 1010.1 |
| 20260905223325 | 82 | 346 | 4.0 | 7.0 | 0.00 | 0.00 | 0.00 | 62 | 1010.0 |
| 20260905222830 | 82 | 36 | 4.0 | 6.0 | 0.00 | 0.00 | 0.00 | 62 | 1009.9 |
| 20260905222333 | 82 | 360 | 3.0 | 12.0 | 0.00 | 0.00 | 0.00 | 62 | 1009.9 |
| 20260905221838 | 82 | 360 | 3.0 | 12.0 | 0.00 | 0.00 | 0.00 | 61 | 1009.8 |
| 20260905221342 | 82 | 86 | 4.0 | 6.0 | 0.00 | 0.00 | 0.00 | 62 | 1009.9 |
| 20260905220826 | 82 | 355 | 3.0 | 9.0 | 0.00 | 0.00 | 0.00 | 64 | 1009.9 |
| 20260905220331 | 82 | 328 | 5.0 | 9.0 | 0.00 | 0.00 | 0.00 | 64 | 1009.7 |
| 20260905215840 | 82 | 355 | 2.0 | 7.0 | 0.00 | 0.00 | 0.00 | 66 | 1009.7 |
| 20260905215343 | 81 | 339 | 4.0 | 7.0 | 0.00 | 0.00 | 0.00 | 65 | 1009.7 |
| 20260905214830 | 81 | 28 | 5.0 | 7.0 | 0.00 | 0.00 | 0.00 | 66 | 1009.8 |
| 20260905214335 | 81 | 13 | 3.0 | 9.0 | 0.00 | 0.00 | 0.00 | 65 | 1009.8 |
| 20260905213839 | 82 | 43 | 3.0 | 9.0 | 0.00 | 0.00 | 0.00 | 65 | 1009.8 |
| 20260905213404 | 83 | 333 | 4.0 | 11.0 | 0.00 | 0.00 | 0.00 | 65 | 1009.7 |
| 20260905212826 | 83 | 338 | 5.0 | 11.0 | 0.00 | 0.00 | 0.00 | 63 | 1009.7 |
| 20260905212330 | 83 | 13 | 6.0 | 11.0 | 0.00 | 0.00 | 0.00 | 65 | 1009.7 |
| 20260905211854 | 83 | 355 | 5.0 | 11.0 | 0.00 | 0.00 | 0.00 | 65 | 1009.5 |
| 20260905211338 | 84 | 342 | 3.0 | 7.0 | 0.00 | 0.00 | 0.00 | 63 | 1009.5 |
| 20260905210843 | 84 | 346 | 5.0 | 7.0 | 0.00 | 0.00 | 0.00 | 64 | 1009.5 |
| 20260905210347 | 84 | 23 | 5.0 | 7.0 | 0.00 | 0.00 | 0.00 | 65 | 1009.5 |
| 20260905205851 | 83 | 69 | 2.0 | 7.0 | 0.00 | 0.00 | 0.00 | 65 | 1009.5 |
| 20260905205333 | 83 | 9 | 5.0 | 7.0 | 0.00 | 0.00 | 0.00 | 67 | 1009.6 |
| 20260905204838 | 82 | 333 | 5.0 | 7.0 | 0.00 | 0.00 | 0.00 | 67 | 1009.6 |
| 20260905204326 | 82 | 336 | 5.0 | 9.0 | 0.00 | 0.00 | 0.00 | 68 | 1009.6 |
| 20260905203851 | 82 | 13 | 5.0 | 9.0 | 0.00 | 0.00 | 0.00 | 66 | 1009.8 |
| 20260905203335 | 82 | 331 | 5.0 | 6.0 | 0.00 | 0.00 | 0.00 | 66 | 1009.8 |
| 20260905202839 | 83 | 28 | 4.0 | 6.0 | 0.00 | 0.00 | 0.00 | 65 | 1009.8 |
| 20260905202343 | 83 | 28 | 0.0 | 6.0 | 0.00 | 0.00 | 0.00 | 67 | 1009.7 |
| 20260905201827 | 83 | 340 | 3.0 | 6.0 | 0.00 | 0.00 | 0.00 | 66 | 1009.7 |
| 20260905201334 | 82 | 355 | 2.0 | 6.0 | 0.00 | 0.00 | 0.00 | 68 | 1009.7 |
| 20260905200842 | 82 | 71 | 2.0 | 6.0 | 0.00 | 0.00 | 0.00 | 68 | 1009.6 |
| 20260905200326 | 82 | 355 | 2.0 | 6.0 | 0.00 | 0.00 | 0.00 | 66 | 1009.7 |
| 20260905195831 | 82 | 327 | 3.0 | 7.0 | 0.00 | 0.00 | 0.00 | 66 | 1009.8 |
| 20260905195354 | 82 | 355 | 4.0 | 7.0 | 0.00 | 0.00 | 0.00 | 66 | 1009.8 |
| 20260905194838 | 82 | 360 | 3.0 | 7.0 | 0.00 | 0.00 | 0.00 | 68 | 1009.9 |
| 20260905194326 | 82 | 335 | 3.0 | 6.0 | 0.00 | 0.00 | 0.00 | 69 | 1009.8 |
| 20260905193830 | 82 | 333 | 3.0 | 10.0 | 0.00 | 0.00 | 0.00 | 70 | 1009.8 |
| 20260905193333 | 83 | 336 | 4.0 | 10.0 | 0.00 | 0.00 | 0.00 | 68 | 1009.9 |
| 20260905192841 | 83 | 326 | 2.0 | 10.0 | 0.00 | 0.00 | 0.00 | 68 | 1009.9 |
| 20260905192324 | 83 | 333 | 7.0 | 12.0 | 0.00 | 0.00 | 0.00 | 67 | 1010.2 |
| 20260905191829 | 83 | 17 | 7.0 | 12.0 | 0.00 | 0.00 | 0.00 | 67 | 1010.2 |
| 20260905191334 | 83 | 329 | 2.0 | 6.0 | 0.00 | 0.00 | 0.00 | 67 | 1010.1 |
| 20260905190838 | 83 | 55 | 2.0 | 10.0 | 0.00 | 0.00 | 0.00 | 65 | 1010.3 |
| 20260905190343 | 83 | 344 | 4.0 | 10.0 | 0.00 | 0.00 | 0.00 | 67 | 1010.1 |
| 20260905185827 | 83 | 355 | 2.0 | 11.0 | 0.00 | 0.00 | 0.00 | 64 | 1010.0 |
| 20260905185335 | 83 | 44 | 5.0 | 11.0 | 0.00 | 0.00 | 0.00 | 66 | 1010.2 |
| 20260905184859 | 83 | 13 | 5.0 | 7.0 | 0.00 | 0.00 | 0.00 | 66 | 1010.3 |
| 20260905184343 | 82 | 46 | 5.0 | 10.0 | 0.00 | 0.00 | 0.00 | 69 | 1010.2 |
| 20260905183827 | 82 | 325 | 5.0 | 10.0 | 0.00 | 0.00 | 0.00 | 68 | 1010.4 |
| 20260905183331 | 82 | 355 | 6.0 | 10.0 | 0.00 | 0.00 | 0.00 | 69 | 1010.4 |
| 20260905182839 | 82 | 360 | 5.0 | 10.0 | 0.00 | 0.00 | 0.00 | 70 | 1010.5 |
| 20260905182321 | 82 | 360 | 6.0 | 11.0 | 0.00 | 0.00 | 0.00 | 68 | 1010.6 |
| 20260905181829 | 81 | 355 | 6.0 | 11.0 | 0.00 | 0.00 | 0.00 | 68 | 1010.6 |
| 20260905181334 | 82 | 11 | 4.0 | 9.0 | 0.00 | 0.00 | 0.00 | 71 | 1010.6 |
| 20260905180838 | 82 | 20 | 5.0 | 9.0 | 0.00 | 0.00 | 0.00 | 70 | 1010.7 |
| 20260905180343 | 82 | 355 | 5.0 | 9.0 | 0.00 | 0.00 | 0.00 | 69 | 1010.7 |
| 20260905175831 | 82 | 342 | 3.0 | 7.0 | 0.00 | 0.00 | 0.00 | 68 | 1010.7 |
| 20260905175355 | 82 | 331 | 5.0 | 7.0 | 0.00 | 0.00 | 0.00 | 69 | 1010.7 |
| 20260905174837 | 82 | 5 | 2.0 | 5.0 | 0.00 | 0.00 | 0.00 | 69 | 1010.8 |
| 20260905174324 | 82 | 360 | 1.0 | 10.0 | 0.00 | 0.00 | 0.00 | 69 | 1010.9 |
| 20260905173830 | 82 | 326 | 6.0 | 10.0 | 0.00 | 0.00 | 0.00 | 70 | 1010.8 |
| 20260905173338 | 82 | 360 | 1.0 | 11.0 | 0.00 | 0.00 | 0.00 | 67 | 1010.8 |
| 20260905172843 | 82 | 347 | 2.0 | 11.0 | 0.00 | 0.00 | 0.00 | 71 | 1011.0 |
| 20260905172326 | 82 | 60 | 3.0 | 7.0 | 0.00 | 0.00 | 0.00 | 69 | 1010.9 |
| 20260905171851 | 82 | 333 | 4.0 | 10.0 | 0.00 | 0.00 | 0.00 | 68 | 1010.9 |
| 20260905171334 | 82 | 342 | 3.0 | 10.0 | 0.00 | 0.00 | 0.00 | 69 | 1011.0 |
| 20260905170859 | 81 | 355 | 3.0 | 9.0 | 0.00 | 0.00 | 0.00 | 69 | 1011.1 |
| 20260905170402 | 81 | 332 | 6.0 | 9.0 | 0.00 | 0.00 | 0.00 | 70 | 1011.0 |
| 20260905165826 | 80 | 331 | 3.0 | 9.0 | 0.00 | 0.00 | 0.00 | 73 | 1011.1 |
| 20260905165329 | 80 | 347 | 5.0 | 9.0 | 0.00 | 0.00 | 0.00 | 71 | 1011.2 |
| 20260905164838 | 80 | 30 | 4.0 | 7.0 | 0.00 | 0.00 | 0.00 | 71 | 1011.3 |
| 20260905164321 | 80 | 334 | 4.0 | 8.0 | 0.00 | 0.00 | 0.00 | 72 | 1011.4 |
| 20260905163828 | 80 | 341 | 4.0 | 8.0 | 0.00 | 0.00 | 0.00 | 74 | 1011.4 |
| 20260905163336 | 80 | 348 | 3.0 | 6.0 | 0.00 | 0.00 | 0.00 | 72 | 1011.5 |
| 20260905162840 | 79 | 323 | 1.0 | 8.0 | 0.00 | 0.00 | 0.00 | 73 | 1011.7 |
| 20260905162344 | 79 | 355 | 3.0 | 8.0 | 0.00 | 0.00 | 0.00 | 74 | 1011.7 |
| 20260905161828 | 80 | 15 | 2.0 | 7.0 | 0.00 | 0.00 | 0.00 | 73 | 1011.7 |
| 20260905161333 | 80 | 13 | 3.0 | 6.0 | 0.00 | 0.00 | 0.00 | 73 | 1011.9 |
| 20260905160838 | 80 | 321 | 3.0 | 6.0 | 0.00 | 0.00 | 0.00 | 74 | 1011.9 |
| 20260905160342 | 79 | 5 | 5.0 | 7.0 | 0.00 | 0.00 | 0.00 | 73 | 1011.9 |
| 20260905155831 | 79 | 11 | 1.0 | 7.0 | 0.00 | 0.00 | 0.00 | 75 | 1012.0 |
| 20260905155334 | 79 | 350 | 1.0 | 6.0 | 0.00 | 0.00 | 0.00 | 76 | 1012.0 |
| 20260905154842 | 79 | 9 | 3.0 | 9.0 | 0.00 | 0.00 | 0.00 | 76 | 1012.0 |
| 20260905154346 | 79 | 331 | 5.0 | 9.0 | 0.00 | 0.00 | 0.00 | 76 | 1011.9 |
| 20260905153830 | 79 | 5 | 2.0 | 4.0 | 0.00 | 0.00 | 0.00 | 77 | 1011.9 |
| 20260905153353 | 80 | 13 | 1.0 | 4.0 | 0.00 | 0.00 | 0.00 | 77 | 1012.0 |
| 20260905152839 | 80 | 85 | 0.0 | 4.0 | 0.00 | 0.00 | 0.00 | 76 | 1012.0 |
| 20260905152326 | 80 | 65 | 0.0 | 4.0 | 0.00 | 0.00 | 0.00 | 77 | 1012.0 |
| 20260905151830 | 80 | 355 | 1.0 | 4.0 | 0.00 | 0.00 | 0.00 | 79 | 1011.9 |
| 20260905151335 | 79 | 98 | 0.0 | 4.0 | 0.00 | 0.00 | 0.00 | 79 | 1011.9 |
| 20260905150839 | 79 | 9 | 2.0 | 5.0 | 0.00 | 0.00 | 0.00 | 79 | 1012.0 |
| 20260905150344 | 79 | 73 | 1.0 | 5.0 | 0.00 | 0.00 | 0.00 | 80 | 1012.2 |
| 20260905145833 | 78 | 23 | 2.0 | 4.0 | 0.00 | 0.00 | 0.00 | 81 | 1012.1 |
| 20260905145336 | 78 | 5 | 1.0 | 4.0 | 0.00 | 0.00 | 0.00 | 81 | 1012.2 |
| 20260905144841 | 78 | 355 | 1.0 | 2.0 | 0.00 | 0.00 | 0.00 | 81 | 1012.2 |
| 20260905144325 | 78 | 9 | 0.0 | 2.0 | 0.00 | 0.00 | 0.00 | 81 | 1012.1 |
| 20260905143833 | 78 | 9 | 1.0 | 2.0 | 0.00 | 0.00 | 0.00 | 80 | 1012.1 |
| 20260905143358 | 78 | 93 | 0.0 | 1.0 | 0.00 | 0.00 | 0.00 | 81 | 1012.1 |
| 20260905142841 | 79 | 93 | 0.0 | 1.0 | 0.00 | 0.00 | 0.00 | 83 | 1012.0 |
| 20260905142323 | 78 | 93 | 0.0 | 1.0 | 0.00 | 0.00 | 0.00 | 82 | 1012.0 |
| 20260905141851 | 78 | 93 | 0.0 | 2.0 | 0.00 | 0.00 | 0.00 | 82 | 1011.9 |
| 20260905141355 | 78 | 93 | 0.0 | 2.0 | 0.00 | 0.00 | 0.00 | 82 | 1011.9 |
| 20260905140838 | 79 | 48 | 0.0 | 2.0 | 0.00 | 0.00 | 0.00 | 82 | 1011.9 |
| 20260905140326 | 78 | 84 | 0.0 | 3.0 | 0.00 | 0.00 | 0.00 | 82 | 1011.7 |
| 20260905135831 | 78 | 147 | 1.0 | 4.0 | 0.00 | 0.00 | 0.00 | 83 | 1011.6 |
| 20260905135354 | 78 | 142 | 0.0 | 4.0 | 0.00 | 0.00 | 0.00 | 84 | 1011.6 |
| 20260905134842 | 78 | 23 | 1.0 | 3.0 | 0.00 | 0.00 | 0.00 | 84 | 1011.5 |
| 20260905134346 | 78 | 23 | 1.0 | 2.0 | 0.00 | 0.00 | 0.00 | 84 | 1011.4 |